CAPE
2581 2676 2466 2289 2542 1959 1911 1512 1192 1007 909 757 522 238 36 0 0 0 0 0 0 0 0 0 0 0 0 0 0 0 0 0 0 0 0 0 0 0 0 0 0 0 1
2661 2839 2845 2591 2683 2252 1650 1408 1265 1067 890 649 333 136 0 0 0 0 0 0 0 0 0 0 0 0 0 0 0 0 0 0 0 0 0 0 0 0 0 0 0 0 7
2788 2798 2864 2712 2606 2403 1794 1432 1212 916 669 381 159 28 0 0 0 0 0 0 0 0 0 0 0 0 0 0 0 0 0 0 0 0 0 0 0 0 0 0 0 0 22
2711 2682 2598 2595 2453 2326 2152 1637 1187 836 519 253 72 2 0 0 0 0 0 0 0 0 0 0 0 0 0 0 0 0 0 0 0 0 0 0 0 0 0 0 0 0 0
2550 2491 2458 2532 2427 2269 1807 1419 1072 769 428 176 15 0 0 0 0 0 0 0 0 0 0 0 0 0 0 0 0 0 0 0 0 0 0 0 0 0 0 0 0 0 0
2487 2441 2459 2474 2395 2083 1559 1151 894 462 308 23 0 0 0 0 0 0 0 0 0 0 0 0 0 0 0 0 0 0 0 0 0 0 0 0 0 0 0 0 0 0 0
2555 2410 2474 2427 2208 1826 1359 940 634 339 54 0 0 0 0 0 0 0 0 0 0 0 0 0 0 0 0 0 0 0 0 0 0 0 0 0 0 0 0 0 0 0 0
2727 2577 2615 2310 1873 1473 1112 700 391 100 1 0 0 0 0 0 0 0 0 0 0 0 0 0 0 0 0 0 0 0 0 0 0 0 0 0 0 0 0 0 0 0 0
2940 2831 2552 1982 1517 1260 1044 494 224 17 0 0 0 0 0 0 0 0 0 0 0 0 0 0 0 0 0 0 0 0 0 0 0 0 0 0 0 0 0 0 0 0 0
3130 2880 2184 1513 1387 1194 563 215 10 0 0 0 0 0 0 0 0 0 0 0 0 0 0 0 0 0 0 0 0 0 0 0 0 0 0 0 0 0 0 0 0 0 0
2943 2496 1763 1233 1179 692 158 3 0 0 0 0 0 0 0 0 0 0 0 0 0 0 0 0 0 0 0 0 0 0 0 0 0 0 0 0 0 0 1 0 0 0 0
2449 1934 1418 1141 801 395 109 9 0 0 0 0 0 0 0 0 0 0 0 0 0 0 0 0 0 0 0 0 0 0 0 0 0 0 0 0 0 4 6 5 2 0 0
1986 1771 1222 747 516 214 45 0 0 0 0 0 0 0 0 0 0 0 0 0 0 0 0 0 0 0 0 0 0 0 0 0 0 0 0 0 0 11 17 20 4 0 4
2050 1561 995 726 368 29 0 0 0 0 0 0 0 0 0 0 0 0 0 0 0 0 0 0 0 0 0 0 0 0 0 0 0 0 0 0 18 48 35 31 25 47 53
1743 1418 876 565 231 20 0 0 0 0 0 0 0 0 0 0 0 0 0 0 0 0 0 0 0 0 0 0 0 0 0 1 4 1 0 0 11 42 44 41 37 28 21
1733 1108 509 240 11 4 0 0 0 0 0 0 0 0 0 0 0 0 0 0 0 0 0 0 0 0 0 0 0 3 2 16 28 23 5 9 18 27 44 26 15 17 18
1364 807 229 68 11 4 0 0 0 0 0 0 0 0 0 0 0 0 0 0 0 0 0 0 0 0 0 12 7 8 5 17 33 44 64 59 62 42 63 17 41 24 23
926 598 285 96 46 21 10 0 0 0 0 0 0 0 0 0 0 0 0 0 0 0 0 0 0 0 0 0 1 14 11 19 31 45 43 46 79 67 38 44 51 36 18
811 518 240 112 85 70 3 0 0 0 0 0 0 0 0 0 0 0 0 0 0 0 0 0 0 0 0 0 0 0 4 4 24 7 23 40 14 20 43 26 46 49 19
749 542 344 261 222 136 107 15 0 0 0 0 0 0 0 0 0 0 0 0 0 0 0 0 0 0 0 0 0 5 8 23 20 22 25 63 19 7 11 11 7 11 1
761 481 495 391 304 201 144 94 0 0 0 0 0 0 0 0 0 0 0 0 0 0 0 0 0 0 2 30 7 21 24 27 25 0 3 0 39 46 43 4 0 2 0
689 644 488 484 342 280 146 30 0 0 0 0 0 0 0 0 0 0 0 0 0 0 0 0 0 0 6 9 24 36 3 0 4 0 3 0 0 0 0 0 0 0 0
666 755 589 391 304 57 1 0 0 0 0 0 0 0 1 3 0 1 0 0 0 0 1 0 4 21 19 43 25 0 0 0 0 0 0 0 0 0 0 0 0 0 0
563 609 270 109 8 0 0 0 0 0 0 0 0 0 1 0 1 0 0 0 0 2 11 6 2 9 15 2 0 0 0 0 0 0 0 0 0 0 0 0 0 0 0
370 87 23 0 0 0 0 0 0 0 0 0 0 0 5 7 5 0 0 9 14 1 0 0 0 0 0 0 0 0 0 0 0 0 0 0 0 0 0 0 0 0 0
71 6 0 0 0 0 0 0 0 0 0 0 0 0 4 4 5 2 0 7 0 0 0 0 0 0 0 0 0 0 0 0 0 0 0 0 0 0 0 0 0 0 0
CIN
-128 -114 -102 -73 -27 -27 -20 -25 -57 -82 -97 -100 -130 -194 -306 0 0 0 0 0 0 0 0 0 0 0 0 0 0 0 0 0 0 0 0 0 0 0 0 0 0 0 -11
-150 -125 -97 -82 -37 -34 -65 -70 -96 -99 -114 -142 -203 -281 0 0 0 0 0 0 0 0 0 0 0 0 0 0 0 0 0 0 0 0 0 0 0 0 0 0 0 0 -31
-155 -145 -111 -83 -81 -60 -86 -102 -143 -159 -195 -252 -320 -398 0 0 0 0 0 0 0 0 0 0 0 0 0 0 0 0 0 0 0 0 0 0 0 0 0 0 0 0 -49
-190 -158 -149 -113 -111 -100 -82 -125 -177 -211 -252 -311 -389 -116 0 0 0 0 0 0 0 0 0 0 0 0 0 0 0 0 0 0 0 0 0 0 0 0 0 0 0 0 0
-209 -187 -178 -126 -89 -102 -150 -188 -214 -245 -302 -353 -373 0 0 0 0 0 0 0 0 0 0 0 0 0 0 0 0 0 0 0 0 0 0 0 0 0 0 0 0 0 0
-224 -213 -204 -153 -118 -145 -202 -242 -258 -353 -354 -473 0 0 0 0 0 0 0 0 0 0 0 0 0 0 0 0 0 0 0 0 0 0 0 0 0 0 0 0 0 0 0
-208 -201 -186 -168 -191 -201 -245 -260 -305 -366 -464 0 0 0 0 0 0 0 0 0 0 0 0 0 0 0 0 0 0 0 0 0 0 0 0 0 0 0 0 0 0 0 0
-139 -164 -163 -198 -247 -258 -271 -352 -425 -491 -68 0 0 0 0 0 0 0 0 0 0 0 0 0 0 0 0 0 0 0 0 0 0 0 0 0 0 0 0 0 0 0 0
-125 -113 -179 -241 -271 -294 -305 -447 -513 -671 0 0 0 0 0 0 0 0 0 0 0 0 0 0 0 0 0 0 0 0 0 0 0 0 0 0 0 0 0 0 0 0 0
-120 -137 -203 -310 -304 -286 -407 -509 -568 0 0 0 0 0 0 0 0 0 0 0 0 0 0 0 0 0 0 0 0 0 0 0 0 0 0 0 0 0 0 0 0 0 0
-149 -171 -269 -362 -287 -389 -500 -353 0 0 0 0 0 0 0 0 0 0 0 0 0 0 0 0 0 0 0 0 0 0 0 0 0 0 0 0 0 0 -44 -38 0 0 0
-160 -180 -260 -283 -344 -474 -563 -739 0 0 0 0 0 0 0 0 0 0 0 0 0 0 0 0 0 0 0 0 0 0 0 0 0 0 0 0 0 -35 -61 -92 -80 0 0
-162 -148 -230 -317 -382 -539 -653 -52 0 0 0 0 0 0 0 0 0 0 0 0 0 0 0 0 0 0 0 0 0 0 0 0 0 0 0 0 0 -58 -42 -78 -82 0 -64
-107 -143 -251 -324 -448 -704 0 0 0 0 0 0 0 0 0 0 0 0 0 0 0 0 0 0 0 0 0 0 0 0 0 0 0 0 0 0 -60 -41 -29 -50 -46 -49 -47
-85 -152 -305 -397 -537 -748 -163 0 0 0 0 0 0 0 0 0 0 0 0 0 0 0 0 0 0 0 0 0 0 0 0 -17 -132 -48 0 0 -57 -47 -28 -45 -37 -41 -33
-58 -171 -382 -504 -613 0 0 0 0 0 0 0 0 0 0 0 0 0 0 0 0 0 0 0 0 0 0 0 0 -38 -63 -50 -62 -53 -39 -55 -54 -60 -36 -39 -50 -43 -28
-92 -241 -467 -581 -551 0 0 0 0 0 0 0 0 0 0 0 0 0 0 0 0 0 0 0 0 0 0 -41 -35 -41 -35 -46 -47 -49 -37 -34 -53 -48 -39 -41 -36 -34 -34
-187 -282 -405 -472 -528 -546 -578 0 0 0 0 0 0 0 0 0 0 0 0 0 0 0 0 0 0 0 0 0 -22 -36 -53 -61 -45 -36 -38 -37 -31 -27 -31 -37 -30 -30 -27
-190 -244 -317 -382 -383 -358 -465 0 0 0 0 0 0 0 0 0 0 0 0 0 0 0 0 0 0 0 0 0 0 0 -44 -60 -57 -27 -40 -40 -39 -18 -28 -39 -28 -35 -30
-142 -171 -211 -230 -213 -257 -266 -236 0 0 0 0 0 0 0 0 0 0 0 0 0 0 0 0 0 0 0 0 0 -36 -46 -56 -54 -45 -35 -29 -31 -23 -27 -24 -40 -21 -16
-87 -102 -102 -117 -124 -142 -116 -157 0 0 0 0 0 0 0 0 0 0 0 0 0 0 0 0 0 0 -61 -70 -54 -70 -60 -50 -51 -9 -43 -24 -43 -37 -27 -31 0 -30 0
-105 -71 -107 -84 -83 -73 -113 -151 0 0 0 0 0 0 0 0 0 0 0 0 0 0 0 0 0 0 -23 -49 -42 -40 -34 -12 -30 -4 -27 0 0 0 0 0 0 0 0
-87 -46 -60 -107 -113 -198 -32 0 0 0 0 0 0 0 -32 -31 0 -18 0 0 0 0 -65 0 -84 -65 -55 -66 -74 -6 0 0 0 0 0 0 0 0 0 0 0 0 0
-62 -59 -138 -164 -283 0 0 0 0 0 0 0 0 0 -65 -69 -97 0 0 0 0 -35 -63 -76 -35 -67 -53 -10 0 0 0 0 0 0 0 0 0 0 0 0 0 0 0
-101 -202 -198 -31 0 0 0 0 0 0 0 0 0 0 -35 -116 -143 0 0 -51 -60 -70 0 0 0 0 0 0 0 0 0 0 0 0 0 0 0 0 0 0 0 0 0
-171 -88 0 0 0 0 0 0 0 0 0 0 0 0 -131 -155 -97 -21 0 -14 0 0 0 0 0 0 0 0 0 0 0 0 0 0 0 0 0 0 0 0 0 0 0
Wind_Speed
18 16 16 17 18 18 17 16 14 14 11 10 10 9 8 9 10 9 10 12 12 13 14 14 14 15 17 17 16 16 17 14 13 13 14 14 18 22 22 21 18 15 11
17 15 15 16 17 17 15 12 12 13 16 12 9 8 9 9 10 10 9 10 11 12 12 13 14 15 15 17 17 17 16 15 12 14 10 14 18 19 21 21 23 17 10
15 13 14 16 17 16 14 12 12 13 14 13 11 10 9 8 8 9 9 9 10 11 11 12 13 13 15 16 16 16 16 17 15 14 13 17 19 20 21 22 23 25 12
14 13 15 17 17 15 13 12 11 12 12 11 8 8 8 9 8 9 9 9 10 10 12 13 14 14 14 15 16 16 17 18 18 17 16 14 18 21 21 23 23 23 20
16 16 17 14 13 11 11 12 11 10 10 9 9 9 9 7 7 8 8 8 8 10 11 12 12 13 14 15 15 15 15 16 16 16 17 18 20 22 23 21 21 21 17
14 14 14 14 12 11 11 11 10 9 7 8 8 8 8 8 7 6 6 7 8 8 10 12 13 13 14 14 15 15 14 14 15 16 17 19 21 21 22 20 20 20 18
14 13 13 14 13 13 10 8 7 5 6 7 7 7 6 6 6 5 5 6 6 7 8 9 10 12 13 14 14 15 16 14 15 15 18 18 18 19 21 20 19 19 20
13 13 13 14 12 11 9 7 6 6 6 7 6 6 5 5 8 4 4 5 5 6 6 7 7 9 9 10 11 12 12 12 13 14 15 15 15 17 19 19 20 20 22
13 15 14 13 13 13 11 10 7 7 4 6 6 6 5 6 8 4 3 3 3 5 6 8 8 8 9 9 10 13 17 10 12 9 10 12 13 15 16 20 20 22 21
12 13 14 15 14 13 13 11 8 6 5 5 5 4 5 6 7 6 1 2 3 3 4 6 7 7 8 10 10 11 14 14 17 13 13 13 14 13 12 13 16 19 22
12 12 14 13 14 14 13 9 8 7 6 5 6 3 3 4 6 7 7 1 2 2 2 4 6 6 8 9 9 9 11 14 16 17 17 17 18 20 12 7 9 13 17
12 12 14 14 14 14 12 11 9 9 8 5 5 3 0 1 4 6 8 5 2 8 10 6 5 4 7 8 8 9 11 13 15 17 18 16 19 22 13 7 5 10 12
13 15 14 15 14 13 13 13 12 11 9 7 6 4 3 2 1 3 6 5 3 6 12 12 5 2 4 6 7 8 10 12 14 16 17 18 18 20 11 11 9 10 12
15 15 15 13 13 13 12 12 13 12 10 9 8 6 4 4 3 3 3 4 4 5 7 12 5 2 4 5 8 9 8 9 12 14 15 16 19 20 15 10 13 14 14
18 18 15 15 14 14 13 12 13 13 12 10 10 8 7 7 5 4 4 3 4 4 5 7 7 5 6 6 8 9 11 12 13 12 14 15 17 17 18 16 18 19 20
19 18 18 14 14 14 12 12 13 12 12 12 10 9 9 7 4 4 5 5 4 3 6 7 7 5 6 6 8 11 12 13 13 13 14 14 16 15 16 14 18 20 21
15 14 15 15 15 14 12 13 13 13 14 13 12 11 11 8 8 8 7 7 5 3 4 5 5 5 5 6 8 10 11 12 14 14 14 15 18 15 12 16 19 20 20
16 14 12 13 14 13 13 13 12 13 13 13 17 12 10 8 7 11 9 6 5 7 9 8 5 5 6 10 12 12 15 14 15 15 17 20 14 11 15 18 18 19 20
15 15 13 11 10 12 12 10 11 12 12 7 8 11 9 6 5 4 7 8 7 8 8 8 6 6 9 12 13 14 13 16 17 21 21 19 14 14 16 17 16 17 17
19 16 14 13 12 11 11 12 10 9 9 8 9 9 8 6 6 5 5 6 9 10 7 5 5 8 12 13 13 13 14 16 16 18 16 15 15 14 16 14 16 16 14
21 17 14 13 13 12 12 14 12 10 9 9 9 9 10 11 10 8 9 9 11 7 7 4 8 12 16 17 19 18 16 13 15 13 14 17 18 16 13 14 14 13 15
8 13 12 11 12 15 15 13 10 11 12 10 10 7 7 6 8 9 8 9 6 10 6 7 9 11 12 14 15 13 15 14 14 16 17 16 14 13 14 16 16 13 11
14 10 8 10 8 8 10 10 10 11 11 10 11 9 8 9 12 8 6 5 8 5 4 6 10 11 12 11 12 12 16 16 14 13 15 17 18 19 20 21 23 23 16
7 7 9 10 8 6 7 7 6 5 6 6 8 7 2 9 7 14 7 5 4 4 6 6 8 9 11 11 12 14 14 15 14 14 14 16 18 21 22 24 24 24 24
8 9 10 8 8 7 5 4 6 7 6 4 7 4 5 11 18 15 5 3 4 2 3 4 7 10 12 10 10 10 11 11 12 12 15 16 19 21 22 22 22 23 22
12 10 9 8 7 5 5 5 7 8 8 3 5 6 12 12 10 8 4 3 2 2 3 8 11 11 12 11 8 8 9 10 10 12 14 17 19 20 19 20 21 22 24
Wind_Direction
155 153 150 154 153 154 148 139 133 123 116 111 100 85 66 57 44 53 40 32 32 25 24 29 29 25 15 14 15 11 7 10 19 23 17 16 7 1 360 5 10 12 17
160 157 154 152 153 154 150 137 121 121 131 119 100 72 58 65 57 50 45 37 38 37 39 33 26 19 24 17 17 16 15 15 18 8 31 15 10 9 5 4 357 7 23
168 165 160 160 158 159 154 141 131 123 125 128 118 109 106 78 70 60 64 49 47 51 50 44 34 26 21 20 19 17 14 4 2 5 13 6 6 4 359 353 353 351 8
176 177 171 170 168 162 151 144 137 132 127 121 108 100 95 99 79 78 71 57 54 49 40 38 35 31 27 21 16 12 8 3 358 357 7 12 4 1 1 350 338 344 347
175 178 182 177 173 165 158 152 141 135 130 120 116 112 97 86 79 72 67 63 53 43 42 37 35 37 33 21 18 18 12 10 9 8 5 0 353 351 348 348 342 346 350
189 189 187 185 186 179 170 162 150 139 121 123 120 106 103 94 87 67 71 68 50 46 41 37 42 45 40 33 26 22 19 9 3 359 359 353 351 352 349 348 346 343 342
203 203 196 192 191 187 184 176 160 148 134 135 123 121 111 94 110 78 74 64 50 50 44 47 49 46 42 33 27 20 19 21 19 13 358 360 359 2 358 352 349 347 343
225 223 208 199 199 193 197 200 184 169 158 148 138 129 107 74 119 83 74 76 56 52 58 49 46 45 43 30 27 17 14 13 11 9 11 14 13 8 5 359 349 346 351
220 227 218 213 211 201 211 212 211 189 184 167 150 128 112 106 124 104 54 80 65 37 33 18 30 31 33 30 20 9 358 9 3 5 11 11 9 6 3 357 355 354 349
228 233 233 227 213 215 226 226 224 212 202 186 169 142 124 127 135 143 105 21 90 33 26 13 14 18 28 17 12 5 358 6 2 3 356 353 354 352 352 351 351 348 346
241 235 235 228 227 240 249 240 235 231 233 208 185 160 134 137 145 153 162 47 359 15 17 0 360 10 15 13 11 1 356 358 351 351 346 342 343 343 344 334 342 346 345
250 244 243 240 240 237 234 245 236 221 231 220 202 192 187 148 149 159 172 170 15 344 330 313 330 347 359 6 12 9 1 359 359 356 351 346 341 342 354 355 332 335 335
260 256 251 252 251 240 237 242 233 230 236 248 212 228 284 288 219 185 188 212 247 334 342 335 292 303 347 0 9 5 358 355 353 349 347 342 342 344 345 350 344 331 331
273 269 262 254 251 253 248 248 239 237 243 249 248 263 278 292 281 291 223 257 258 292 327 346 18 21 348 349 352 351 352 349 340 337 338 339 339 340 341 337 337 331 326
275 273 261 262 252 250 252 253 242 249 247 250 258 267 270 282 273 232 216 224 231 241 306 330 338 335 328 327 333 337 340 334 335 336 331 333 334 333 334 330 329 329 325
278 271 268 263 258 257 252 262 263 249 247 265 267 268 280 275 241 203 194 193 191 246 303 305 308 310 312 319 320 323 324 328 330 330 332 328 329 325 326 327 331 328 324
275 275 265 259 261 257 256 256 247 267 273 266 265 268 273 268 215 207 196 197 205 262 296 300 296 298 300 313 319 325 323 325 324 326 327 326 327 326 323 323 329 327 325
271 266 258 260 259 254 263 256 251 258 257 266 276 274 268 259 255 214 219 219 266 282 290 294 288 278 299 316 321 320 326 326 327 325 327 332 327 326 331 327 326 329 329
271 261 262 260 257 267 265 260 260 271 274 255 270 285 288 292 297 275 208 236 253 275 286 291 287 289 306 313 316 323 325 326 331 332 331 333 333 324 326 328 328 329 328
267 259 260 265 272 264 260 269 263 271 268 253 255 259 267 282 281 273 254 240 272 284 281 270 267 305 319 321 319 316 320 328 330 330 330 332 326 316 325 329 331 329 333
262 259 257 265 266 265 266 269 270 270 273 274 266 253 235 250 254 256 262 263 277 267 214 237 300 306 317 320 327 322 323 323 327 328 328 334 329 326 329 336 337 336 332
252 264 259 262 264 271 273 275 266 270 282 279 280 266 215 245 274 257 267 272 244 195 230 272 298 321 325 324 330 332 331 332 330 332 332 338 342 342 338 335 333 333 332
267 268 253 263 265 272 279 280 282 289 296 293 291 281 256 292 305 298 266 202 175 202 251 287 308 313 329 334 329 327 333 339 341 342 338 336 333 332 332 330 328 327 328
247 260 265 271 271 272 272 267 274 290 328 339 333 352 285 283 193 189 184 189 221 245 301 311 330 335 338 342 340 342 343 343 341 340 341 338 334 330 327 324 324 322 320
280 280 268 261 263 263 246 249 275 287 302 305 314 286 192 172 196 196 220 239 295 331 23 22 3 352 346 343 340 343 346 347 344 339 337 334 331 328 326 324 323 321 318
269 268 263 262 256 238 231 270 288 293 305 297 293 165 168 191 189 183 175 338 16 95 359 342 341 345 347 346 341 339 341 342 342 342 340 336 333 332 331 329 327 325 324